Tracking 30990 objects as of 8-Jul-2025
HD Live streaming from Space Station
objects crossing your sky now

SL-8 DEB

Track SL-8 DEB now!
10-day predictions


NORAD ID: 21943
Int'l Code: 1991-009CE
Perigee: 1,493.5 km
Apogee: 1,712.3 km
Inclination: 74.0 °
Period: 118.1 minutes
Semi major axis: 7973 km
RCS: 0.0463 m2 (small)
Launch date: February 12, 1991
Source: Commonwealth of Independent States (former USSR) (CIS)
Launch site: PLESETSK MISSILE AND SPACE COMPLEX (PKMTR)

Note: This is SATELLITE DEBRIS
Your satellite tracking list
Your tracking list is empty




NASA's NSSDC Master Catalog

Two Line Element Set (TLE):
1 21943U 91009CE  25187.76518701  .00000041  00000-0  53245-3 0  9993
2 21943  73.9509 203.2218 0137220 199.7130 275.3679 12.19256026527914
Source of the keplerian elements: AFSPC